STARLINK-1338 (45532 NORAD) Tracking and Keplerian Element Data

This shows tracking and keplerian element data for the satellite.

Feedback or suggestion? Click here.




ElementValue
Catalog45532
NameSTARLINK-1338
Epoch Orbit175
Epoch Day188.91667824
Epoch Year2020
RAAN47.0994
Inclination53.0131
Eccentricity0.0002095
Argument of Perigee104.3612
Mean Anonmoly252.4612
Mean Motion15.05584328
Decay Rate-7.184E-05
L11 45532U 20025B 20188.91667824 -.00007184 00000-0 -47432-3 0 9995
L22 45532 53.0131 47.0994 0002095 104.3612 252.4612 15.05584328 1756

Live tracking and technical data element details for STARLINK-1338 (NORAD 45532). STARLINK-1338 can be tracked NOW for your location showing map with azimuth and elevation plus other details from your city location.

Track the satellite on the map from your city or location and see movement details for azimuth, elevation, latitude, longitude, range, height, and movement on the map or in text.







IsCatalogInMostPopularTable: catalog: 45532, numindb: 17
Update: records affected: 1



GetName: 45532 STARLINK-1338

Hit Count: updated at: Wed, 08 Jul 2020 03:47:28 GMT